Regional Weather Roundup
Issued by NWS Cleveland, OH

Home | Current Version | Previous Version | Text Only | Print | Product List | Glossary Off
Versions: 1 2 3 4 5 6 7 8 9 10 11 12 13 14 15 16 17 18 19 20 21 22 23 24 25 26 27 28 29 30 31 32 33 34 35 36 37 38 39 40 41 42 43 44 45 46 47 48 49 50

461
ASUS41 KCLE 301500
RWRCLE
OHIO REGIONAL WEATHER ROUNDUP
NATIONAL WEATHER SERVICE WILMINGTON, OH
1100 AM EDT SAT APR 30 2016

NOTE: "FAIR" INDICATES FEW OR NO CLOUDS BELOW 12,000 FEET WITH NO
SIGNIFICANT WEATHER AND/OR OBSTRUCTIONS TO VISIBILITY.

OHZ001>008-015>018-024>027-034-035-043-044-301600-
   NORTHWEST OHIO

CITY           SKY/WX    TMP DP  RH WIND       PRES   REMARKS
DEFIANCE       FAIR      50  35  56 E13       30.10F
FINDLAY        FAIR      51  39  63 E9        30.08F
TOLEDO EXPRESS FAIR      53  37  54 E13       30.10F
TOLEDO EXEC    FAIR      53  37  54 E12       30.11F
LIMA           CLOUDY    47  43  86 E10       30.07F
$$

OHZ009>014-019>023-028>033-038-089-301600-
   NORTHEAST OHIO

CITY           SKY/WX    TMP DP  RH WIND       PRES   REMARKS
CLE-HOPKINS    CLOUDY    49  43  80 SE7       30.14F
CLE-LAKEFRONT  PTSUNNY   51  43  74 E6        30.12S
CUY CO. ARPT   PTSUNNY   52  45  76 E12       30.13F
LORAIN-ELYRIA  PTSUNNY   46  40  79 S8        30.12F
ASHTABULA      CLOUDY    52  44  74 SE8       30.14F
AKRON-CANTON   CLOUDY    51  44  77 SE9       30.11S
WOOSTER        NOT AVBL
MANSFIELD      CLOUDY    43  41  93 E8        30.09S FOG
YOUNGSTOWN     PTSUNNY   54  44  69 SE13      30.11F
$$

OHZ042-051>053-060>062-070>072-077>081-301600-
  SOUTHWEST OHIO

CITY           SKY/WX    TMP DP  RH WIND       PRES   REMARKS
CINC-COVINGTON LGT RAIN  54  51  90 CALM      30.05R FOG
CINC-LUNKEN    CLOUDY    55  50  83 CALM      30.06R
HAMILTON       LGT RAIN  53  49  86 E6        30.05R FOG
DAYTON         NOT AVBL
WRIGHT-PAT AFB NOT AVBL
DAYTON GENERAL LGT RAIN  50  46  86 E10       30.02F
WILMINGTON     LGT RAIN  50  47  89 E10       30.03S
$$

OHZ036-037-039>041-045>050-054>059-063>069-073>076-082>088-301600-
  CENTRAL AND SOUTHEAST OHIO

CITY           SKY/WX    TMP DP  RH WIND       PRES   REMARKS
COLUMBUS       CLOUDY    53  46  77 NE10      30.05F
OSU AIRPORT    PTSUNNY   52  45  77 E9        30.05F
BOLTON FIELD   CLOUDY    52  46  82 E5        30.06F
RICKENBACK AFB NOT AVBL
NEWARK         PTSUNNY   56  46  69 E6        30.07F
MARION         CLOUDY    48  43  82 E9        30.09F HAZE
LANCASTER      CLOUDY    54  47  77 E10       30.05F
ZANESVILLE     PTSUNNY   58  47  66 SE5       30.08F
NEW PHILLY     CLOUDY    51  44  77 SE7       30.10F
$$




USA.gov is the U.S. government's official web portal to all federal, state and local government web resources and services.